Weather History for CWSP - March, 2014

Change the Weather History Date:

Saturday, March 15, 2014

  Actual Average Record
Temperature  
Mean Temperature 47 °F -  
Max Temperature 51 °F - - ()
Min Temperature 43 °F - - ()
Degree Days  
Heating Degree Days 18    
Moisture  
Dew Point 43 °F    
Average Humidity 83    
Maximum Humidity 95    
Minimum Humidity 71    
Precipitation  
Precipitation 1.18 in - - ()
Sea Level Pressure  
Sea Level Pressure 30.18 in    
Wind  
Wind Speed 6 mph ()    
Max Wind Speed 21 mph    
Max Gust Speed 28 mph    
T = Trace of Precipitation, MM = Missing Value Source: Averaged Metar Reports

Daily Weather History Graph

Daily Weather History Graph

Search for Another Location

Airport or City:

Trip Planner

Search our weather history database for the weather conditions in past years. The results will help you decide how hot, cold, wet, or windy it might be!

Date:

Astronomy

Mar. 15, 2014 Rise Set
Actual Time 7:28 AM PDT 7:21 PM PDT
Civil Twilight 6:57 AM PDT 7:52 PM PDT
Nautical Twilight 6:21 AM PDT 8:28 PM PDT
Astronomical Twilight 5:43 AM PDT 9:06 PM PDT
Moon 6:45 PM PDT (3/15) 6:45 AM PDT (3/15)
Length of Visible Light 12h 54m
Length of Day
11h 52m
Waxing Gibbous, 99% of the Moon is Illuminated
Mar 15
Waxing Gibbous
Mar 16
Full
Mar 23
Last Quarter
Mar 30
New
Apr 7
First Quarter

Hourly Weather History & Observations

Time (PDT) Temp. Windchill Dew Point Humidity Pressure Visibility Wind Dir Wind Speed Gust Speed Precip Events Conditions
12:00 AM 48.0 °F - 38.8 °F 71% 30.31 in - NW 6.9 mph - N/A   Unknown
1:00 AM 45.5 °F 44.2 °F 37.9 °F 75% 30.32 in - East 3.5 mph - N/A   Unknown
2:00 AM 43.9 °F 41.3 °F 38.3 °F 81% 30.30 in - East 4.6 mph - N/A   Unknown
3:00 AM 46.2 °F 43.3 °F 37.6 °F 72% 30.29 in - ENE 5.8 mph - N/A   Unknown
4:00 AM 47.7 °F - 38.7 °F 71% 30.24 in - East 5.8 mph - N/A   Unknown
5:00 AM 45 °F - 39 °F 73% 30.24 in - East 9.2 mph - -  
5:00 AM 45.3 °F 40.6 °F 39.2 °F 79% 30.24 in - East 9.2 mph - N/A   Unknown
6:00 AM 45.9 °F 41.2 °F 39.0 °F 77% 30.21 in - East 9.2 mph - N/A   Unknown
7:00 AM 45.1 °F 41.4 °F 40.8 °F 85% 30.22 in - ENE 6.9 mph - N/A   Unknown
8:00 AM 46.4 °F 43.5 °F 39.7 °F 78% 30.18 in - NE 5.8 mph - 0.01 in   Unknown
9:00 AM 45.5 °F 44.2 °F 39.2 °F 79% 30.17 in - ENE 3.5 mph - N/A   Unknown
10:00 AM 46.6 °F - 40.8 °F 80% 30.17 in - East 5.8 mph - N/A   Unknown
11:00 AM 47 °F - 42 °F 76% 30.17 in - ESE 1.2 mph - -  
11:00 AM 47.5 °F - 41.9 °F 81% 30.17 in - ESE 1.2 mph - N/A   Unknown
12:00 PM 47.5 °F - 41.5 °F 80% 30.14 in - WSW 2.3 mph - N/A   Unknown
1:00 PM 45.5 °F 44.2 °F 41.2 °F 85% 30.14 in - West 3.5 mph - N/A   Unknown
2:00 PM 50.5 °F - 45.5 °F 83% 30.12 in - NW 6.9 mph - 0.03 in   Unknown
3:00 PM 50.7 °F - 47.1 °F 87% 30.11 in - NW 5.8 mph - 0.13 in   Unknown
4:00 PM 50.5 °F - 47.7 °F 90% 30.11 in - NNW 1.2 mph - 0.12 in   Unknown
5:00 PM 47 °F - 46 °F 92% 30.11 in - East 6.9 mph - -  
5:00 PM 47.1 °F - 45.5 °F 94% 30.11 in - East 6.9 mph - 0.27 in   Unknown
6:00 PM 48.4 °F - 47.1 °F 95% 30.12 in - WNW 2.3 mph - 0.30 in   Unknown
7:00 PM 49.3 °F - 47.7 °F 94% 30.12 in - WNW 20.7 mph 27.6 mph 0.34 in   Unknown
8:00 PM 49.8 °F - 47.8 °F 93% 30.13 in - WNW 12.7 mph 20.7 mph 0.27 in   Unknown
9:00 PM 50.2 °F - 48.4 °F 94% 30.16 in - WNW 10.4 mph - 0.14 in   Unknown
10:00 PM 47.3 °F - 46.0 °F 95% 30.17 in - WSW 6.9 mph - 0.10 in   Unknown
11:00 PM 49 °F - 45 °F 82% 30.16 in - SW 10.4 mph - -  
11:00 PM 49.3 °F - 45.1 °F 86% 30.16 in - SW 10.4 mph - 0.01 in   Unknown